FW8987 Weather Reports


time (UTC)temp
C
wind
direction
speed
KPH
gust
KPH
rain 1hr
cm
rain 24hr
cm
rain mn
cm
humidity
%
barometer
mb
20260901190047 12 0.0 0.0 0.00 0.00 0.00 93 1008.0
20260901185023 12 0.0 0.0 0.00 0.00 0.00 93 1008.0
20260901184018 12 0.0 0.0 0.00 0.00 0.00 92 1008.0
20260901183114 13 0.0 0.0 0.00 0.00 0.00 91 1007.8
20260901182028 13 0.0 0.0 0.00 0.00 0.00 88 1007.8
20260901181023 14 0.0 0.0 0.00 0.00 0.00 85 1007.8
20260901180019 15 0.0 0.0 0.00 0.00 0.00 82 1007.6
20260901175034 16 0.0 0.0 0.00 0.00 0.00 75 1007.7
20260901174029 16 192 0.0 1.6 0.00 0.00 0.00 75 1007.5
20260901173025 18 0.0 0.0 0.00 0.00 0.00 73 1007.7
20260901172020 20 0.0 0.0 0.00 0.00 0.00 63 1007.6
20260901171017 21 0.0 0.0 0.00 0.00 0.00 61 1007.6
20260901170032 21 0.0 0.0 0.00 0.00 0.00 59 1007.5
20260901165027 21 188 0.0 4.8 0.00 0.00 0.00 57 1007.6
20260901164023 20 202 0.0 3.2 0.00 0.00 0.00 56 1007.6
20260901163018 21 210 1.6 4.8 0.00 0.00 0.00 55 1007.5
20260901162033 21 221 1.6 4.8 0.00 0.00 0.00 54 1007.6
20260901161028 21 214 1.6 4.8 0.00 0.00 0.00 53 1007.6
20260901160044 21 231 3.2 6.4 0.00 0.00 0.00 51 1007.6
20260901155019 21 246 4.8 9.7 0.00 0.00 0.00 49 1007.7
20260901154035 21 248 6.4 9.7 0.00 0.00 0.00 50 1007.7
20260901153055 21 224 4.8 6.4 0.00 0.00 0.00 50 1007.8
20260901152025 22 244 4.8 9.7 0.00 0.00 0.00 49 1007.6
20260901151020 21 221 3.2 9.7 0.00 0.00 0.00 48 1007.8
20260901150016 22 233 3.2 6.4 0.00 0.00 0.00 47 1007.8
20260901145051 22 227 4.8 9.7 0.00 0.00 0.00 48 1007.8
20260901144026 21 240 4.8 11.3 0.00 0.00 0.00 49 1007.9
20260901143021 22 234 4.8 9.7 0.00 0.00 0.00 46 1007.9
20260901142016 22 222 1.6 4.8 0.00 0.00 0.00 44 1007.9
20260901141031 22 234 4.8 11.3 0.00 0.00 0.00 45 1008.0
20260901140027 21 243 4.8 9.7 0.00 0.00 0.00 47 1008.1
20260901135023 21 250 4.8 12.9 0.00 0.00 0.00 46 1008.1
20260901134058 22 196 1.6 3.2 0.00 0.00 0.00 46 1008.2
20260901133032 22 202 1.6 3.2 0.00 0.00 0.00 47 1008.2
20260901132028 21 217 3.2 6.4 0.00 0.00 0.00 48 1008.2
20260901131024 21 220 1.6 4.8 0.00 0.00 0.00 46 1008.3
20260901130018 21 229 1.6 9.7 0.00 0.00 0.00 48 1008.2
20260901125033 21 216 1.6 4.8 0.00 0.00 0.00 50 1008.3
20260901124029 21 236 3.2 6.4 0.00 0.00 0.00 49 1008.3
20260901123024 21 187 1.6 4.8 0.00 0.00 0.00 51 1008.4
20260901122019 20 141 1.6 3.2 0.00 0.00 0.00 53 1008.4
20260901121054 20 160 1.6 6.4 0.00 0.00 0.00 54 1008.4
20260901120030 20 141 1.6 4.8 0.00 0.00 0.00 53 1008.4
20260901115104 20 192 1.6 3.2 0.00 0.00 0.00 53 1008.5
20260901114020 20 181 0.0 1.6 0.00 0.00 0.00 51 1008.6
20260901113034 19 234 3.2 6.4 0.00 0.00 0.00 54 1008.6
20260901112030 18 191 1.6 4.8 0.00 0.00 0.00 55 1008.5
20260901111025 19 185 1.6 3.2 0.00 0.00 0.00 54 1008.6
20260901110020 18 226 3.2 6.4 0.00 0.00 0.00 55 1008.6
20260901105016 18 205 1.6 3.2 0.00 0.00 0.00 57 1008.6
20260901104031 18 236 3.2 6.4 0.00 0.00 0.00 60 1008.6
20260901103046 17 170 3.2 6.4 0.00 0.00 0.00 61 1008.7
20260901102021 17 215 1.6 4.8 0.00 0.00 0.00 61 1008.7
20260901101016 17 232 4.8 9.7 0.00 0.00 0.00 63 1008.6
20260901100031 17 201 1.6 6.4 0.00 0.00 0.00 64 1008.5
20260901095108 17 239 4.8 11.3 0.00 0.00 0.00 65 1008.5
20260901094022 17 232 4.8 9.7 0.00 0.00 0.00 65 1008.4
20260901093017 17 226 4.8 11.3 0.00 0.00 0.00 63 1008.5
20260901092033 17 242 3.2 6.4 0.00 0.00 0.00 60 1008.4
20260901091028 16 271 4.8 9.7 0.00 0.00 0.00 64 1008.5
20260901090023 16 243 4.8 11.3 0.00 0.00 0.00 65 1008.5
20260901085043 16 231 4.8 6.4 0.00 0.00 0.00 71 1008.5
20260901084034 15 244 3.2 9.7 0.00 0.00 0.00 67 1008.6
20260901083029 15 255 4.8 11.3 0.00 0.00 0.00 69 1008.5
20260901082024 15 244 4.8 12.9 0.00 0.00 0.00 72 1008.5
20260901081019 15 248 3.2 9.7 0.00 0.00 0.00 70 1008.5
20260901080035 15 192 1.6 4.8 0.00 0.00 0.00 71 1008.5
20260901075030 15 226 3.2 6.4 0.00 0.00 0.00 72 1008.4
20260901074025 15 227 3.2 9.7 0.00 0.00 0.00 71 1008.5
20260901073020 14 248 3.2 11.3 0.00 0.00 0.00 76 1008.4
20260901072035 15 255 3.2 9.7 0.00 0.00 0.00 73 1008.3
20260901071051 14 262 4.8 12.9 0.00 0.00 0.00 74 1008.4
20260901070026 14 233 4.8 9.7 0.00 0.00 0.00 76 1008.3
20260901065022 14 177 3.2 11.3 0.00 0.00 0.00 78 1008.2
20260901064016 13 237 4.8 14.5 0.00 0.00 0.00 81 1008.1
20260901063032 13 256 6.4 11.3 0.00 0.00 0.00 85 1008.0
20260901062027 12 223 3.2 6.4 0.00 0.00 0.00 87 1008.1
20260901061023 12 230 3.2 4.8 0.00 0.00 0.00 90 1008.0
20260901060018 12 245 3.2 6.4 0.00 0.00 0.00 90 1007.9
20260901055115 12 226 1.6 6.4 0.00 0.00 0.00 91 1007.9
20260901054028 12 209 1.6 6.4 0.00 0.00 0.00 92 1007.7
20260901053044 11 218 1.6 4.8 0.00 0.00 0.00 94 1007.9
20260901052019 11 239 1.6 4.8 0.00 0.00 0.00 94 1007.8
20260901051034 11 223 1.6 3.2 0.00 0.00 0.00 95 1007.9
20260901050029 11 222 1.6 4.8 0.00 0.00 0.00 96 1007.9
20260901044538 11 231 1.6 4.8 0.00 0.00 0.00 98 1007.7
20260901043533 11 207 0.0 1.6 0.00 0.00 0.00 98 1007.6
20260901042528 11 223 1.6 4.8 0.00 0.03 0.00 99 1007.7
20260901041523 11 192 0.0 1.6 0.00 0.03 0.00 99 1007.6
20260901040538 11 195 0.0 1.6 0.00 0.03 0.00 99 1007.5
20260901035533 11 195 0.0 1.6 0.00 0.03 0.00 98 1007.5
20260901034610 11 206 0.0 3.2 0.00 0.05 0.00 98 1007.4
20260901033523 12 204 1.6 3.2 0.00 0.05 0.00 98 1007.3
20260901032539 12 212 1.6 3.2 0.00 0.05 0.00 97 1007.3
20260901031534 12 209 1.6 3.2 0.00 0.08 0.00 95 1007.3
20260901030529 12 213 1.6 4.8 0.00 0.08 0.00 96 1007.3
20260901025526 12 212 1.6 4.8 0.00 0.10 0.00 98 1007.1
20260901024541 12 219 1.6 4.8 0.00 0.10 0.00 99 1007.0
20260901023516 12 201 0.0 1.6 0.00 0.13 0.00 99 1007.0
20260901022532 12 206 1.6 1.6 0.00 0.13 0.00 99 1006.9
20260901021527 12 0.0 0.0 0.00 0.13 0.00 99 1006.7
20260901020542 13 211 1.6 3.2 0.00 0.13 0.00 99 1006.6
20260901015518 12 203 0.0 3.2 0.00 0.13 0.00 99 1006.6
20260901014533 12 202 0.0 1.6 0.00 0.13 0.00 99 1006.5
20260901013528 12 0.0 0.0 0.00 0.13 0.00 98 1006.3
20260901012544 13 0.0 0.0 0.00 0.13 0.00 98 1006.1
20260901011519 13 229 1.6 4.8 0.00 0.13 0.00 98 1006.2
20260901010534 13 219 1.6 4.8 0.00 0.13 0.00 98 1006.1
20260901005550 13 228 3.2 4.8 0.00 0.13 0.00 98 1006.1
20260901004524 13 213 1.6 3.2 0.00 0.13 0.00 98 1006.0
20260901003519 13 224 1.6 4.8 0.00 0.13 0.00 98 1006.0
20260901002535 13 225 1.6 4.8 0.00 0.13 0.00 99 1006.1
20260901001531 13 219 1.6 3.2 0.00 0.13 0.00 99 1005.9
20260901000546 12 0.0 0.0 0.00 0.13 0.00 99 1005.8
20260831235521 12 0.0 0.0 0.00 0.13 0.00 99 1005.9
20260831234516 12 0.0 0.0 0.00 0.13 0.00 99 1005.8
20260831233532 12 0.0 0.0 0.00 0.13 0.00 99 1005.9
20260831232526 12 0.0 0.0 0.00 0.13 0.00 99 1005.8
20260831231521 12 0.0 0.0 0.00 0.13 0.00 99 1005.8
20260831230517 12 0.0 0.0 0.00 0.13 0.00 99 1005.8
20260831225532 11 0.0 0.0 0.00 0.13 0.00 99 1005.7
20260831224527 12 0.0 0.0 0.00 0.13 0.00 99 1005.7
20260831223523 11 0.0 0.0 0.00 0.13 0.00 99 1005.6
20260831222518 11 0.0 0.0 0.00 0.13 0.00 99 1005.7
20260831221533 11 0.0 0.0 0.00 0.13 0.00 99 1005.6
20260831220529 11 0.0 0.0 0.00 0.13 0.00 99 1005.3
20260831215524 12 0.0 0.0 0.00 0.13 0.13 99 1005.4
20260831214540 12 0.0 0.0 0.00 0.13 0.13 99 1005.3
20260831213534 12 0.0 0.0 0.00 0.13 0.13 99 1005.5
20260831212530 12 0.0 0.0 0.00 0.13 0.13 98 1005.3
20260831211526 12 197 1.6 1.6 0.00 0.13 0.13 98 1005.5
20260831210521 12 0.0 0.0 0.00 0.13 0.13 98 1005.5
20260831205516 13 169 0.0 1.6 0.00 0.13 0.13 97 1005.3
20260831204551 13 165 0.0 1.6 0.00 0.13 0.13 97 1005.3
20260831203526 13 0.0 0.0 0.00 0.13 0.13 96 1005.2
20260831202521 14 166 0.0 1.6 0.00 0.13 0.13 94 1005.3
20260831201517 14 165 0.0 1.6 0.00 0.13 0.13 93 1005.4
20260831200532 15 192 0.0 3.2 0.00 0.13 0.13 91 1005.3
20260831195528 15 224 1.6 4.8 0.00 0.13 0.13 91 1005.1
20260831194523 15 220 3.2 6.4 0.00 0.13 0.13 90 1005.2
20260831193518 15 189 0.0 1.6 0.00 0.13 0.13 89 1005.2
20260831192533 15 208 1.6 4.8 0.00 0.13 0.13 89 1005.0
20260831191528 15 198 1.6 6.4 0.00 0.13 0.13 90 1005.1
20260831190523 16 200 0.0 4.8 0.00 0.13 0.13 89 1005.0